COSMOS 2130

Satellite information

Favourite Embed

Satellite Type and Status

PAYLOADIN ORBIT

Key statistics

Satellite COSMOS 2130 at a glance.

Uptime

12509

Days in orbit

Revolutions

≈ 12.6

Per day

Orbit

LEO

Low Earth Orbit

Inclination

74.0

Latest

Satellite identification and parameters

Extended collection of information and parameters for COSMOS 2130.

Object identification

Identified? True

Debris? False

Object name: COSMOS 2130

International designator: 1991-009F

Object number (NORAD): 21105

Object ID (CCSDS): 21105

Country: COMMONWEALTH OF INDEPENDENT STATES (CIS)

Current information (Y/N): Y

RCS size: MEDIUM

Orbital parameters

Period: 114.543 minutes

Inclination: 74.0292 deg

SMA: 7812.772 km

Apoapsis: 1468.49 km

Periapsis: 1400.783 km

RAAN: 268.8627 deg

Eccentricy: 0.0043331

Argument of periapsis: 134.3044 deg

Mean anomaly: 42.8773 deg

Mean motion: 12.57173083 rev/day

Mean motion (dot): -0.00000026 rev/day2

B* drag term: -0.000057638 1/REarth

Two-line elements (TLE)

Creation date: May 12, 2025, 2:31 a.m.

Reference frame: TEME

Reference center: EARTH

Epoch: May 11, 2025, 9:23 p.m. UTC

TLE line 0: 0 COSMOS 2130

TLE line 1: 1 21105U 91009F 25131.89148993 -.00000026 00000-0 -57638-4 0 9994

TLE line 2: 2 21105 74.0292 268.8627 0043331 134.3044 42.8773 12.57173083571525

Live tracking on map

Real-time ground track for satellite COSMOS 2130.

In-orbit conjunctions

There are no conjunctions computed for COSMOS 2130, at the moment. Check back to stay up to date, as we update our databases every day.

Go to all conjunctions

Associated space launch

Military communications satellites

COSMOS 2130 was lifted into orbit during the mission ‘Kosmos-3M | Strela-1M 353-360’, on board a Kosmos-3M space rocket.

The launch took place on Feb. 12, 1991, 2:44 a.m. from 133/3 (133L).

For more information about the launch, click the button.

Launch to space Kosmos-3M | Strela-1M 353-360
Kosmos-3M | Strela-1M 353-360

Agency: N/A

Status: Launch Successful

Launch date: Feb. 12, 1991, 2:44 a.m. UTC

Rocket: Kosmos-3M

Launch pad: 133/3 (133L)

Location: Plesetsk Cosmodrome, Russian Federation

...

Latest news about this satellite

There are no fresh news available about this satellite. Check back as we update our databases every day.


Newsletter sign-up

Weekly statistics, charts and insights to help you stay on top of the space industry.